Location: Dorf
(48.5000°N, 14.1000°E)
Time: 19:29:14
(UTC+00:00)

Daily predictions for brighter satellites

Satellite Brightness Start Highest point End
(mag) Time Altitude Azimuth Time Altitude Azimuth Time Altitude Azimuth
Meteor 1-14 Rocket 4.2 17:19:08 10° S 17:24:35 64° E 17:30:05 10° NNE
Okean O Rocket 3.6 17:20:59 10° SSW 17:24:59 35° W 17:29:01 10° NNW
Cosmos 1500 3.1 17:22:53 10° S 17:26:34 61° E 17:30:16 10° NNE
Cosmos 2360 Rocket 2.2 17:20:58 10° SSW 17:26:37 77° ESE 17:32:18 10° NNE
SJ-11-01 4.4 17:23:09 10° SSE 17:27:45 59° ENE 17:32:24 10° N
Cosmos 1943 Rocket 4.3 17:28:48 10° NNE 17:29:34 10° NNE 17:30:21 10° NNE
Okean 1-7 3.3 17:25:39 10° N 17:29:54 48° ENE 17:34:05 10° SSE
Cosmos 2341 Rocket 4.2 17:24:36 10° SSE 17:30:35 49° E 17:36:34 10° NNE
PSLV R/B 4.2 17:27:56 10° NNE 17:31:51 43° E 17:35:42 10° S
Cosmos 1844 3.8 17:26:21 10° NNW 17:32:09 87° WSW 17:37:51 10° SSE
Okean 1 4.3 17:28:50 10° NNW 17:32:48 54° W 17:36:45 10° S
Cosmos 2333 4.4 17:27:45 10° S 17:33:11 50° ESE 17:38:41 10° NE
YAOGAN 1 2.5 17:28:54 10° SSE 17:33:12 69° ENE 17:37:30 10° N
Cosmos 2237 Rocket 3.8 17:32:30 10° ESE 17:34:37 12° E 17:36:42 10° ENE
Cosmos 2278 Rocket 3.1 17:29:44 10° NNW 17:34:42 30° NE 17:39:39 10° ESE
SJ 16-02 2.5 17:34:15 10° N 17:37:59 26° ENE 17:41:40 10° ESE
SAR-Lupe-4 4.2 17:34:58 10° NNE 17:38:16 34° E 17:41:34 10° SSE
FALCON 9 DEB 3.1 17:35:21 10° WNW 17:38:30 58° NNE 17:41:32 11° E
Meteor 1-5 Rocket 4.2 17:35:33 10° S 17:40:50 58° E 17:46:20 10° NNE
Cosmos 2218 Rocket 4.5 17:35:36 10° SSE 17:41:28 40° E 17:47:19 10° NNE
COSMO-SKYMED 1 3.3 17:38:57 10° N 17:43:15 60° WNW 17:47:31 10° SSW
IRS-1C Rocket 4.4 17:38:02 10° S 17:43:18 75° WSW 17:48:37 10° NNW
Okean 3 4.1 17:39:28 10° N 17:43:25 35° ENE 17:47:20 10° SE
SL-4 R/B 2.1 17:40:04 10° WNW 17:43:35 57° SSW 17:46:57 10° SE
Cosmos 1536 3.8 17:41:27 10° SE 17:44:41 24° E 17:47:55 10° NE
SeaSat 1 3.4 17:41:44 10° NE 17:45:49 25° ESE 17:49:51 10° SSE
FALCON 9 DEB 2.9 17:43:17 10° WNW 17:46:28 69° NNE 17:49:12 13° ESE
Cosmos 2242 Rocket 3.6 17:42:51 10° N 17:47:22 86° ENE 17:51:49 10° S
Gbstr 26 Del rocket 3.5 17:46:38 10° WNW 17:51:02 63° N 17:55:46 13° E
Cosmos 2333 Rocket 2.3 17:48:28 10° S 17:54:01 58° ESE 17:59:39 10° NE
USA 238 DEB 4.4 17:49:11 10° SSE 17:54:34 28° ESE 18:00:07 10° ENE
USA 238 4.4 17:49:19 10° SSE 17:54:41 27° ESE 18:00:13 10° ENE
Abrixas rocket 2.2 17:52:30 10° W 17:54:54 45° SSW 17:56:40 15° SE
Resurs 01 Rocket 3.6 17:54:08 11° ENE 17:55:09 12° NE 17:56:43 10° NE
Meteor 2-4 Rocket 4.2 17:52:27 10° NNW 17:58:19 72° W 18:04:14 10° S
SAR-Lupe-1 4.0 17:55:10 10° NNE 17:58:45 62° ESE 18:02:18 10° S
Helios 1A Rocket 2.8 17:55:52 10° SSE 17:59:54 76° ENE 18:03:56 10° NNW
Cosmos 2322 Rocket 3.6 17:55:09 10° WSW 18:00:24 40° NW 18:05:43 10° NNE
Lacrosse 4 Rocket 1.5 17:56:58 10° SSW 18:01:20 66° ESE 18:05:49 10° NE
GP-B 3.0 17:57:34 10° S 18:02:00 79° E 18:06:28 10° N
ARGOS 3.3 17:58:39 10° SSE 18:04:05 84° WSW 18:09:34 10° NNW
ERBS 4.4 18:04:35 10° NW 18:07:01 19° N 18:09:26 10° NE
Cosmos 192 4.2 18:02:53 10° SSW 18:07:47 78° ESE 18:12:43 10° NNE
Cosmos 1869 Rocket 3.5 18:04:20 10° S 18:08:38 63° E 18:13:02 10° NNE
CZ-4 R/B 2.8 18:05:56 10° S 18:09:36 41° W 18:13:22 10° NNW
CZ-4B R/B 3.7 18:07:09 10° N 18:09:46 25° WNW 18:12:23 10° SW
Cosmos 2219 Rocket 2.1 18:04:58 10° SSW 18:10:30 68° ESE 18:16:06 10° NNE
ERS-2 2.1 18:10:45 10° NNE 18:14:25 83° WNW 18:18:04 10° SSW
CZ-2C R/B 2.6 18:09:21 10° NNE 18:14:49 71° ESE 18:20:07 10° S
FALCON 9 DEB 2.9 18:11:59 10° WNW 18:15:08 75° SSW 18:16:47 25° SE
Cosmos 1689 Rocket 2.5 18:13:10 10° N 18:16:01 61° WNW 18:18:53 10° SSW
Cosmos 1238 Rocket 3.0 18:13:05 10° SSE 18:16:51 39° E 18:20:05 10° NNE
Cosmos 1378 3.1 18:14:57 10° N 18:18:40 61° ENE 18:22:20 10° SSE
Cosmos 1980 4.4 18:14:00 10° SSE 18:18:45 29° ESE 18:23:31 10° NE
SL-08 RB Rocket 3.8 18:14:28 10° SSE 18:19:01 82° WSW 18:23:39 10° NNW
USA 305 3.1 18:16:10 10° WNW 18:20:24 59° NNE 18:22:40 26° E
NOSS 3-2 (A) 3.6 18:17:48 10° S 18:23:07 46° ESE 18:29:11 10° NE
CREW DRAGON DEMO-1 DEB 2.9 18:20:47 10° SW 18:23:31 48° SSE 18:23:59 42° ESE
FALCON 9 DEB 2.9 18:21:25 10° WNW 18:24:37 75° SSW 18:25:51 34° SE
COSMOS 2428 2.6 18:19:35 10° SSW 18:25:15 73° ESE 18:30:57 10° NNE
Cosmos 1733 Rocket 3.7 18:22:08 10° SSE 18:26:00 32° E 18:29:55 10° NNE
SL-16 R/B 4.4 18:24:37 10° W 18:29:08 24° NW 18:33:42 10° N
SL-8 Rocket 4.1 18:27:51 10° SSW 18:34:05 77° W 18:40:18 10° N
USA 307 3.0 18:29:55 10° WNW 18:34:11 64° NNE 18:35:52 34° E
Meteor 2-20 4.4 18:28:13 10° N 18:34:20 67° ENE 18:40:26 10° SSE
Cosmos 2369 Rocket 4.1 18:31:36 10° N 18:34:30 14° NNE 18:36:12 13° NE
CENTAUR R/B 2.9 18:29:29 10° S 18:34:51 39° ESE 18:41:09 10° NE
USA 306 3.0 18:31:11 10° WNW 18:35:28 67° NNE 18:37:06 36° E
NOSS 0 Rocket 4.1 18:30:47 10° S 18:36:38 49° ESE 18:42:32 10° NE
ATLAS CENTAUR R/B 3.5 18:34:15 10° W 18:37:03 20° NW 18:39:55 10° NNE
Cosmos 1066 Rocket 4.3 18:31:18 10° NNW 18:37:05 86° W 18:42:57 10° S
Cosmos 1898 Rocket 3.9 18:32:12 10° NNW 18:37:12 43° ENE 18:39:11 30° ESE
Cosmos 1743 2.9 18:36:50 10° S 18:40:35 48° E 18:44:22 10° NNE
Cosmos 1666 4.4 18:39:06 10° SW 18:42:33 35° WNW 18:46:02 10° N
USA 308 2.9 18:40:44 10° WNW 18:45:01 72° NNE 18:46:15 44° E
Cosmos 2322 4.4 18:40:41 10° SW 18:46:18 57° WNW 18:51:58 10° NNE
Meteor 1-23 Rocket 4.2 18:41:52 10° NNW 18:47:31 90° WSW 18:53:12 10° S
GRACE-FO 1 4.5 18:46:49 11° S 18:50:20 87° W 18:54:02 10° N
BREEZE-M DEB (TANK) 3.5 18:48:23 10° SW 18:50:06 39° SSW 18:50:06 39° SSW
ASTEX 1 3.2 18:46:24 10° N 18:51:19 80° E 18:56:12 10° S
Cosmos 2366 rocket 4.3 18:46:03 10° SSW 18:52:21 71° W 18:58:44 10° N
H-2A R/B 4.4 18:48:16 10° SSW 18:52:43 25° W 18:57:10 10° NW
Cosmos 1674 Rocket 3.6 18:50:38 10° N 18:54:52 53° ENE 18:55:15 51° E
SJ-6B 2.9 18:52:44 23° S 18:55:14 80° WSW 18:59:16 10° NNW
Cosmos 990 Rocket 3.9 18:52:35 10° NNW 18:57:47 72° ENE 18:59:41 39° SE
Ariane Rocket 2.9 18:55:34 24° SSE 18:58:45 83° ENE 19:03:53 10° NNW
Cosmos 2221 Rocket 3.7 18:54:27 10° NNW 18:58:54 75° W 19:02:10 18° S
USA 186 2.8 18:59:36 33° W 18:59:40 33° W 19:02:06 10° NNW
Cosmos 2297 4.4 18:56:32 10° NNW 19:01:50 36° NE 19:02:40 35° ENE
OBJECT-B 0.9 19:02:10 70° WSW 19:02:13 70° WSW 19:05:27 10° NNW
Cosmos 1763 Rocket 3.7 18:57:28 10° S 19:02:32 48° ESE 19:07:39 10° NNE
NOSS 3-2 (C) 3.4 18:59:22 10° SSW 19:04:48 53° ESE 19:08:11 26° ENE
Okean 2 4.5 19:02:13 10° N 19:04:48 30° NNE 19:04:48 30° NNE
Meteor 1-11 Rocket 4.5 19:00:55 10° SSW 19:06:26 53° WNW 19:11:55 10° N
Cosmos 1378 Rocket 3.5 19:04:57 10° N 19:09:21 64° ENE 19:09:21 64° ENE
Cosmos 2360 Rocket 4.4 19:06:44 10° W 19:11:16 24° NW 19:15:50 10° N
Cosmos 468 Rocket 3.9 19:08:59 10° S 19:14:12 63° ESE 19:19:27 10° NNE
Cosmos 1943 Rocket 3.1 19:10:10 10° NNW 19:15:16 33° NE 19:15:25 32° NE
Cosmos 1821 Rocket 3.8 19:10:18 10° S 19:16:31 83° E 19:22:41 10° N
SJ 16-02 2.5 19:12:33 10° NW 19:16:42 40° WSW 19:19:19 20° SSW
Cosmos 2237 Rocket 2.0 19:11:58 10° SSW 19:17:38 74° ESE 19:23:21 10° NNE
Cosmos 1544 3.8 19:14:52 10° SSW 19:18:26 53° WNW 19:22:03 10° N
Cosmos 858 Rocket 4.4 19:13:16 10° NNW 19:18:27 64° ENE 19:18:47 63° E
Cosmos 2278 Rocket 2.7 19:13:35 10° NW 19:19:09 57° WSW 19:22:11 26° S
MOS 1 4.5 19:15:42 20° S 19:19:40 70° WSW 19:25:21 10° NNW
Cosmos 1000 Rocket 4.5 19:15:13 10° N 19:21:33 87° W 19:25:17 27° S
USA 81 4.0 19:16:59 10° S 19:22:15 83° W 19:27:33 10° N
SL-4 R/B 4.4 19:21:26 10° WSW 19:22:26 11° SW 19:22:57 11° SW
Meteor 1-21 4.2 19:16:47 10° N 19:22:30 63° ENE 19:23:05 60° ESE
SeaSat 1 3.1 19:18:45 10° NNE 19:23:36 56° NW 19:28:24 10° SW
SPOT 3 Rocket 3.4 19:24:24 68° ESE 19:24:52 73° ENE 19:30:06 10° NNW
Cosmos 2239 Rocket 4.4 19:19:56 10° S 19:26:13 82° E 19:32:30 10° N
Cosmos 1934 Rocket 3.8 19:30:06 61° ESE 19:30:21 62° E 19:36:26 10° NNE
Resurs 01 Rocket 1.9 19:31:41 60° N 19:31:41 60° N 19:35:20 10° NNW
SME Rocket 4.3 19:24:07 10° NNE 19:31:40 65° WNW 19:36:36 10° SSW
SPOT 1/Viking Rocket 4.2 19:33:56 41° NE 19:33:56 41° NE 19:37:49 10° N
USA 234 3.2 19:33:09 55° E 19:34:17 63° SE 19:40:46 10° SW
Gbstr 26 Del rocket 3.6 19:33:16 10° WNW 19:38:07 63° SSW 19:38:19 63° SSW
Cosmos 2333 Rocket 4.0 19:33:40 10° WSW 19:38:40 30° NW 19:43:42 10° NNE
Cosmos 1937 Rocket 3.4 19:34:40 10° NNW 19:39:49 84° W 19:39:49 84° W
Cosmos 2123 Rocket 3.8 19:33:48 10° N 19:40:05 83° E 19:41:01 66° SSE
Lacrosse 4 Rocket 3.9 19:36:56 10° W 19:40:28 22° NW 19:44:03 10° NNE
USA 238 DEB 3.7 19:38:16 10° SW 19:44:51 75° NW 19:51:50 10° NE
USA 238 3.7 19:38:22 10° SW 19:44:58 75° NW 19:51:56 10° NE
Resurs 1-3 4.5 19:45:27 44° WSW 19:45:50 45° W 19:50:05 10° NNW
Cosmos 2219 Rocket 4.2 19:50:19 10° WSW 19:54:58 26° NW 19:59:41 10° NNE
Terra 4.0 20:00:54 17° NNE 20:00:54 17° NNE 20:02:12 10° N
Cosmos 1980 4.4 19:57:01 10° SW 20:02:32 53° NW 20:08:05 10° NNE
NOSS 3-2 (A) 4.3 20:08:22 10° WSW 20:13:59 46° NW 20:20:30 10° NE
Cosmos 1605 Rocket 4.5 20:15:57 53° NNE 20:15:57 53° NNE 20:20:43 10° N
Cosmos 2369 Rocket 3.3 20:14:25 10° NNW 20:18:00 36° N 20:18:00 36° N
CENTAUR R/B 3.1 20:19:14 10° WSW 20:25:16 56° NW 20:32:30 10° NE
USA 281 4.2 20:54:08 38° N 20:54:08 38° N 20:58:27 10° NNW
NOSS 3-2 (C) 4.5 20:50:19 10° WSW 20:55:54 42° NNW 20:55:55 42° NNW
Cosmos 1943 Rocket 3.7 20:53:47 10° NW 20:56:58 32° NW 20:56:58 32° NW
Cosmos 2237 Rocket 4.2 20:57:39 10° W 21:02:18 25° NW 21:06:59 10° N
CENTAUR R/B 4.5 22:11:57 10° WNW 22:17:38 28° NNW 22:24:10 10° NE
